| time (UTC) | temp C | wind direction | speed KPH | gust KPH | rain 1hr cm | rain 24hr cm | rain mn cm | humidity % | barometer mb |
| 20260504044546 | 11 | 0 | 0.0 | 0.0 | 0.00 | 0.00 | 0.00 | 87 | 1019.3 |
| 20260504043035 | 11 | 0 | 0.0 | 0.0 | 0.00 | 0.00 | 0.00 | 86 | 1019.3 |
| 20260504041542 | 11 | 0 | 0.0 | 0.0 | 0.00 | 0.00 | 0.00 | 85 | 1019.4 |
| 20260504034556 | 12 | 0 | 0.0 | 0.0 | 0.00 | 0.00 | 0.00 | 85 | 1019.5 |
| 20260504033059 | 12 | 0 | 0.0 | 0.0 | 0.00 | 0.00 | 0.00 | 84 | 1019.5 |
| 20260504031547 | 12 | 0 | 0.0 | 0.0 | 0.00 | 0.00 | 0.00 | 83 | 1019.5 |
| 20260504030046 | 12 | 0 | 0.0 | 0.0 | 0.00 | 0.00 | 0.00 | 83 | 1019.7 |
| 20260504024544 | 13 | 0 | 0.0 | 0.0 | 0.00 | 0.00 | 0.00 | 83 | 1019.5 |
| 20260504023057 | 13 | 0 | 0.0 | 0.0 | 0.00 | 0.00 | 0.00 | 80 | 1019.2 |
| 20260504021541 | 13 | 0 | 0.0 | 0.0 | 0.00 | 0.00 | 0.00 | 81 | 1019.0 |
| 20260504020041 | 14 | 0 | 0.0 | 0.0 | 0.00 | 0.00 | 0.00 | 76 | 1018.9 |
| 20260504014549 | 15 | 0 | 0.0 | 0.0 | 0.00 | 0.00 | 0.00 | 73 | 1018.9 |
| 20260504013047 | 15 | 0 | 0.0 | 0.0 | 0.00 | 0.00 | 0.00 | 70 | 1018.8 |
| 20260504011539 | 16 | 0 | 0.0 | 0.0 | 0.00 | 0.00 | 0.00 | 66 | 1018.7 |
| 20260504010054 | 17 | 0 | 0.0 | 0.0 | 0.00 | 0.00 | 0.00 | 66 | 1018.6 |
| 20260504004557 | 18 | 0 | 0.0 | 0.0 | 0.00 | 0.00 | 0.00 | 57 | 1018.5 |
| 20260504003043 | 20 | 0 | 0.0 | 1.6 | 0.00 | 0.00 | 0.00 | 54 | 1018.5 |
| 20260504001540 | 21 | 0 | 0.0 | 3.2 | 0.00 | 0.00 | 0.00 | 53 | 1018.2 |
| 20260504000039 | 22 | 0 | 0.0 | 1.6 | 0.00 | 0.00 | 0.00 | 48 | 1018.2 |
| 20260503234541 | 22 | 0 | 0.0 | 4.8 | 0.00 | 0.00 | 0.00 | 45 | 1018.1 |
| 20260503233043 | 22 | 294 | 1.6 | 4.8 | 0.00 | 0.00 | 0.00 | 43 | 1018.2 |
| 20260503231543 | 22 | 0 | 0.0 | 3.2 | 0.00 | 0.00 | 0.00 | 44 | 1018.2 |
| 20260503230041 | 23 | 307 | 1.6 | 16.1 | 0.00 | 0.00 | 0.00 | 43 | 1018.4 |
| 20260503224540 | 23 | 315 | 3.2 | 11.3 | 0.00 | 0.00 | 0.00 | 43 | 1018.4 |
| 20260503223049 | 23 | 336 | 1.6 | 8.0 | 0.00 | 0.00 | 0.00 | 43 | 1018.4 |
| 20260503221545 | 23 | 342 | 3.2 | 12.9 | 0.00 | 0.00 | 0.00 | 41 | 1018.4 |
| 20260503220041 | 23 | 292 | 3.2 | 12.9 | 0.00 | 0.00 | 0.00 | 42 | 1018.4 |
| 20260503214546 | 23 | 5 | 1.6 | 6.4 | 0.00 | 0.00 | 0.00 | 40 | 1018.4 |
| 20260503213059 | 23 | 350 | 3.2 | 11.3 | 0.00 | 0.00 | 0.00 | 43 | 1018.5 |
| 20260503211541 | 23 | 334 | 1.6 | 14.5 | 0.00 | 0.00 | 0.00 | 43 | 1018.7 |
| 20260503210053 | 23 | 30 | 3.2 | 8.0 | 0.00 | 0.00 | 0.00 | 41 | 1018.9 |
| 20260503204549 | 23 | 257 | 8.0 | 16.1 | 0.00 | 0.00 | 0.00 | 44 | 1019.0 |
| 20260503203043 | 23 | 323 | 1.6 | 12.9 | 0.00 | 0.00 | 0.00 | 42 | 1019.5 |
| 20260503201542 | 23 | 336 | 4.8 | 12.9 | 0.00 | 0.00 | 0.00 | 43 | 1019.5 |
| 20260503200046 | 23 | 338 | 1.6 | 14.5 | 0.00 | 0.00 | 0.00 | 45 | 1019.7 |
| 20260503194543 | 23 | 360 | 4.8 | 19.3 | 0.00 | 0.00 | 0.00 | 42 | 1019.9 |
| 20260503193047 | 23 | 286 | 4.8 | 11.3 | 0.00 | 0.00 | 0.00 | 39 | 1020.4 |
| 20260503191543 | 23 | 332 | 4.8 | 24.1 | 0.00 | 0.00 | 0.00 | 43 | 1020.4 |
| 20260503190042 | 22 | 315 | 3.2 | 25.7 | 0.00 | 0.00 | 0.00 | 42 | 1020.6 |
| 20260503184552 | 22 | 270 | 4.8 | 17.7 | 0.00 | 0.00 | 0.00 | 43 | 1020.9 |
| 20260503183054 | 23 | 239 | 8.0 | 17.7 | 0.00 | 0.00 | 0.00 | 37 | 1021.1 |
| 20260503181544 | 22 | 311 | 4.8 | 24.1 | 0.00 | 0.00 | 0.00 | 41 | 1021.4 |
| 20260503180046 | 22 | 103 | 4.8 | 19.3 | 0.00 | 0.00 | 0.00 | 41 | 1021.5 |
| 20260503174541 | 22 | 292 | 4.8 | 17.7 | 0.00 | 0.00 | 0.00 | 38 | 1021.3 |
| 20260503173107 | 22 | 5 | 3.2 | 17.7 | 0.00 | 0.00 | 0.00 | 45 | 1021.5 |
| 20260503171548 | 22 | 339 | 4.8 | 12.9 | 0.00 | 0.00 | 0.00 | 40 | 1021.6 |
| 20260503081539 | 8 | 0 | 0.0 | 1.6 | 0.00 | 0.33 | 0.00 | 87 | 1019.7 |